Wind_Speed
6 5 5 4 4 4 4 3 3 3 3 3 3 3 4 5 6 6 7 7 7 8 8 7 7 7 7 7 8 8 9 10 10 10 11 12 12 13 13 13 13 14 14 15 15 15 16 16 17 17 18 19 19 20 20 20 20 19 19 20 20 20 19 19 19 20 20 20 20
4 4 3 3 2 1 0 1 1 1 1 1 1 2 3 4 5 5 6 6 7 7 7 7 7 7 7 7 8 8 9 9 10 10 11 12 12 13 13 13 14 14 15 15 16 17 18 18 18 19 19 20 20 21 21 21 20 20 19 20 20 19 19 19 19 19 19 20 20
8 7 7 7 6 4 3 2 2 1 2 2 2 3 4 5 5 6 6 6 6 7 7 7 7 7 7 7 8 8 9 10 10 12 13 13 14 14 15 15 16 16 16 16 16 17 18 19 19 20 20 21 21 21 22 22 21 20 20 20 20 20 19 20 19 19 19 19 19
10 9 9 8 7 6 5 4 4 4 4 4 4 4 5 6 6 7 7 7 7 7 7 7 7 8 8 8 9 10 10 11 12 14 15 16 16 16 16 17 18 18 18 18 17 17 17 18 19 20 21 21 22 22 22 22 21 21 20 20 20 20 20 20 20 20 19 20 20
11 11 10 10 9 8 7 7 7 6 6 5 5 5 5 6 6 6 7 7 7 8 8 9 9 10 10 10 11 11 12 13 14 15 16 17 17 17 18 18 18 19 19 19 18 17 17 17 18 19 20 22 22 22 23 22 22 22 21 21 20 20 20 20 20 20 20 21 21
11 10 9 9 8 7 7 7 7 6 6 6 6 7 8 8 8 8 8 9 9 9 10 11 11 12 12 12 13 13 14 14 15 15 16 17 17 18 18 18 19 19 19 19 19 18 17 17 17 18 20 21 22 23 23 23 22 22 22 22 21 21 21 21 21 21 21 21 21
11 10 9 8 7 7 6 6 6 6 5 5 6 8 8 8 8 9 9 9 10 10 11 11 12 13 13 14 14 14 15 15 15 16 16 17 17 18 18 19 19 19 20 20 20 19 19 17 17 17 19 20 22 23 23 23 23 23 23 23 23 22 22 21 21 21 21 21 22
14 13 12 11 10 9 9 8 7 7 6 7 8 9 9 8 8 9 9 9 10 10 11 11 11 12 12 13 14 15 15 16 16 16 17 17 18 18 19 19 20 20 20 20 20 20 20 19 18 18 18 19 21 22 23 23 23 23 23 23 24 24 23 23 22 22 22 22 22
19 18 17 16 15 14 13 11 10 10 10 10 10 10 10 9 9 9 9 10 10 9 10 10 10 11 12 12 13 14 15 16 16 17 17 17 18 18 19 20 20 21 21 21 21 21 21 20 20 19 19 19 20 21 22 23 23 24 24 24 24 24 24 24 23 23 22 22 22
20 19 18 17 17 15 14 13 13 12 12 12 12 11 11 10 10 10 10 10 9 9 9 10 10 11 12 12 13 14 15 15 16 16 17 17 18 18 19 20 20 21 22 22 22 22 21 21 21 21 21 20 20 20 21 21 23 24 24 24 24 24 24 24 24 23 23 23 23
18 17 17 16 16 15 14 14 14 13 13 13 13 13 13 13 12 12 11 11 10 10 11 11 11 12 13 13 13 14 14 14 15 16 16 17 17 17 18 19 20 21 21 22 22 22 22 22 22 22 22 22 21 21 21 21 22 23 24 25 24 24 23 23 24 24 24 24 24
16 16 15 15 14 14 14 14 14 14 14 14 15 15 15 15 14 14 13 13 13 13 13 13 13 13 14 14 14 14 14 14 14 15 15 16 16 17 17 18 19 20 21 21 22 22 22 22 22 23 23 23 23 23 22 22 22 22 23 24 24 24 23 23 23 23 24 24 24
15 14 14 14 14 14 14 14 15 15 15 15 16 16 16 16 15 15 15 15 15 15 14 14 14 14 14 15 15 15 14 14 14 15 15 16 16 16 17 18 18 19 20 20 21 22 22 23 23 23 24 24 24 24 23 23 23 23 23 23 24 24 24 24 24 24 24 24 24
14 15 15 15 14 14 15 15 15 16 16 16 16 16 16 16 16 16 16 16 16 16 16 16 15 15 15 16 16 16 16 16 16 16 16 16 16 16 17 17 18 19 19 20 20 21 21 22 23 23 24 24 25 24 23 23 23 23 23 23 24 24 24 24 25 24 24 24 24
15 16 16 15 15 15 15 16 16 16 16 16 16 16 16 16 16 16 16 16 16 16 16 17 17 17 16 16 17 17 17 17 17 17 17 17 17 17 17 18 18 19 19 20 20 21 21 22 22 23 24 24 24 24 23 23 23 23 23 23 23 24 24 25 25 25 25 24 25
16 16 16 16 16 16 16 16 16 16 16 16 16 16 16 16 16 16 16 17 17 17 17 17 18 18 18 17 17 17 17 18 18 18 19 19 19 19 19 19 19 19 20 20 21 21 22 22 22 23 24 24 25 25 24 24 24 24 24 24 24 24 25 25 25 25 25 25 25
17 17 17 17 17 16 16 16 16 16 16 16 16 16 16 17 17 17 17 17 17 17 18 18 18 18 18 18 18 18 18 18 19 19 19 20 21 21 21 21 21 20 20 20 21 21 22 22 23 23 24 24 25 25 25 25 25 25 25 25 24 24 24 25 25 25 25 25 25
18 18 18 17 17 17 16 16 16 16 16 16 16 16 16 17 17 17 17 17 17 17 18 18 18 18 18 19 19 18 18 19 19 19 20 20 21 21 21 22 21 21 21 21 21 21 22 22 23 23 24 25 25 25 25 26 26 26 26 26 25 24 24 24 25 25 25 25 25
18 18 18 18 17 16 16 16 16 16 16 16 16 16 16 17 17 17 17 17 17 17 18 18 18 18 18 18 19 19 18 19 19 19 19 20 20 21 21 21 21 21 21 21 21 21 22 22 22 23 24 25 25 25 25 25 26 26 27 27 27 26 25 25 25 25 25 25 26
17 17 17 17 16 16 16 16 16 16 16 16 16 16 17 17 17 17 18 18 18 18 18 18 19 19 19 19 19 19 19 18 18 19 19 19 20 20 20 21 21 21 21 22 22 22 22 22 22 23 24 24 25 25 25 25 26 27 27 28 28 28 27 26 26 25 25 26 26
17 16 16 16 15 15 15 15 15 15 15 15 16 16 16 17 17 17 18 18 18 18 18 19 19 19 20 20 20 20 19 19 18 18 19 19 19 20 20 21 21 22 22 22 22 22 22 22 22 23 23 24 25 25 25 26 26 27 27 28 28 29 29 28 27 26 26 26 26
16 15 15 14 14 14 14 14 14 15 15 15 16 16 16 17 17 17 17 18 18 18 19 19 19 19 20 20 20 20 20 19 19 19 19 19 20 20 20 21 22 22 22 22 22 22 22 22 22 22 23 24 25 25 25 26 26 27 27 28 28 29 29 29 28 28 27 27 27
14 14 14 13 13 14 14 14 15 15 16 16 16 17 17 17 18 18 18 18 19 19 19 19 19 20 20 20 20 20 20 20 20 20 20 20 20 21 21 22 22 23 23 23 22 22 22 22 23 23 23 24 24 25 25 25 26 26 27 28 28 28 29 29 29 28 28 27 27
13 13 13 13 14 14 15 15 16 16 17 17 18 18 18 19 19 19 20 20 20 20 20 20 20 20 20 20 20 20 21 21 22 23 23 22 22 22 23 23 23 24 23 23 23 22 22 22 23 23 24 24 24 24 24 24 25 26 27 27 27 27 27 28 28 28 28 28 27
13 13 14 14 15 15 16 17 17 18 18 19 19 19 20 20 20 21 21 21 21 21 21 21 21 21 21 21 21 21 22 23 24 24 25 25 25 24 24 25 25 24 24 24 24 23 23 23 23 24 24 23 23 24 24 25 25 26 26 26 26 26 27 27 27 28 28 28 28
14 14 15 16 17 17 18 18 19 19 19 19 20 20 20 21 21 21 21 21 22 22 22 22 22 22 23 23 23 23 23 24 24 25 26 26 26 26 26 26 25 25 25 25 25 25 25 25 25 25 25 25 25 25 25 25 25 26 26 27 26 26 26 26 27 27 28 28 28
15 16 17 18 18 19 19 19 19 19 20 20 20 20 21 21 21 21 21 22 22 22 23 23 23 24 24 24 24 25 25 25 25 25 25 26 27 27 27 27 26 26 25 26 26 26 27 27 26 26 26 26 27 27 26 26 25 25 26 26 26 26 26 26 27 27 27 27 28
17 18 18 19 19 19 20 19 20 20 20 20 21 21 21 21 21 22 22 23 23 24 24 24 24 24 24 24 25 25 25 25 25 25 25 26 26 27 27 27 27 27 27 27 27 27 27 27 27 26 26 27 27 27 26 25 25 25 25 25 25 25 26 26 27 27 28 28 28
18 19 19 20 20 20 20 20 20 20 21 21 21 21 22 22 22 23 23 24 24 24 24 24 24 24 25 25 25 25 26 25 25 25 25 26 26 27 27 27 27 28 28 28 28 27 27 26 26 26 26 25 26 26 26 25 25 24 24 24 24 25 25 27 27 28 28 28 29
19 19 20 20 20 20 20 20 20 20 21 21 22 22 23 23 23 24 24 24 24 24 24 24 24 24 24 25 25 25 26 26 25 25 25 26 26 27 27 27 28 28 28 28 28 27 26 26 25 25 25 25 25 26 26 25 25 25 25 25 25 26 27 27 28 29 29 29 28
19 20 20 19 19 20 20 20 20 20 21 22 22 22 23 23 23 23 24 24 24 24 24 24 24 24 25 25 25 25 26 26 26 25 25 25 26 27 27 28 28 28 28 28 27 26 25 25 25 25 26 26 26 26 26 26 27 27 27 27 27 27 28 28 28 29 29 29 29
19 19 19 19 19 19 19 20 20 20 21 21 22 22 22 23 23 23 23 24 24 24 24 24 24 25 25 25 26 26 26 26 26 25 25 26 26 27 28 29 28 28 27 26 25 25 25 26 26 26 26 26 27 27 27 27 28 28 28 28 28 29 29 29 29 29 30 30 30
19 19 19 18 19 19 19 20 20 20 21 21 22 22 22 23 24 24 24 24 24 24 24 24 24 25 25 26 26 27 27 26 26 26 26 27 27 28 29 29 28 26 26 25 25 26 26 27 27 28 28 28 28 28 28 29 28 28 28 28 28 29 29 29 29 30 31 31 32
18 18 18 18 19 19 20 20 21 21 21 22 22 22 22 23 24 25 25 25 25 24 24 24 24 25 25 25 26 27 27 27 27 27 28 28 28 28 29 29 28 27 27 27 27 28 28 28 28 28 29 29 29 29 29 29 28 28 28 28 29 29 29 30 30 31 32 32 32
18 18 18 19 19 20 20 21 21 22 22 22 23 23 24 24 24 25 25 26 25 25 25 25 25 26 26 27 27 27 27 28 28 29 29 29 29 29 30 30 30 30 29 29 29 29 29 29 29 29 29 29 29 29 29 28 28 28 28 29 29 29 29 29 29 30 31 32 32
18 18 19 20 20 21 21 22 22 23 23 23 24 25 25 26 26 26 26 26 26 26 27 27 27 27 27 28 28 27 27 28 29 29 29 29 29 30 31 32 32 32 31 30 30 30 29 30 29 29 29 30 29 29 28 28 28 28 28 29 29 29 29 28 29 29 30 30 31
18 18 19 20 21 21 22 22 23 24 24 25 25 26 27 27 27 27 26 26 27 27 28 28 28 29 29 29 29 29 29 29 29 29 30 30 30 30 31 32 33 33 33 32 31 30 30 30 30 30 29 30 29 29 28 28 28 28 28 29 29 29 29 28 28 28 29 29 30
18 19 19 20 21 22 23 23 24 25 26 26 27 27 28 28 28 27 27 26 26 27 28 29 29 30 30 30 30 30 30 30 29 29 30 30 30 30 31 32 34 34 34 33 32 31 31 30 30 30 29 29 29 29 28 28 28 28 29 29 29 29 29 28 27 27 28 28 29
18 19 19 20 21 22 23 23 24 25 26 27 28 28 28 28 28 27 27 27 26 27 28 29 30 30 30 30 30 31 32 32 31 30 30 31 31 31 31 32 33 34 34 33 32 32 31 31 31 30 30 29 29 29 28 28 29 29 29 29 29 30 30 29 28 27 28 28 28
18 19 19 20 21 22 23 24 24 25 26 27 27 28 28 28 27 27 27 27 27 27 28 28 29 30 30 30 30 31 32 33 33 32 32 32 32 32 31 31 32 33 34 33 33 32 32 32 31 31 30 29 29 29 28 28 29 29 30 29 29 29 29 29 28 28 28 28 28
18 19 19 20 20 21 22 24 25 25 26 26 26 27 27 27 26 27 27 28 28 28 27 28 28 29 29 29 29 30 32 33 33 33 33 33 32 32 31 31 32 33 34 34 33 33 32 32 32 32 31 30 30 29 28 28 28 29 30 30 29 29 29 29 29 28 28 28 28
Wind_Direction
162 168 176 184 194 204 213 218 216 210 204 206 217 233 251 266 276 284 289 292 294 295 296 297 296 296 295 294 293 291 290 289 290 290 291 291 292 293 294 295 296 297 298 300 303 306 309 310 310 306 301 297 294 292 292 292 293 292 292 290 289 288 286 283 279 277 274 271 268
118 109 103 96 92 93 126 194 193 185 188 214 248 271 282 286 289 292 293 293 294 294 294 292 291 290 289 289 290 290 290 291 292 294 296 297 298 299 300 300 302 305 307 309 312 314 315 315 314 310 305 301 298 296 295 296 296 294 292 290 289 287 285 281 278 276 273 269 266
87 82 76 70 64 54 40 25 21 16 2 343 329 316 306 300 298 298 300 301 303 305 303 300 301 300 299 301 304 304 304 303 303 304 305 306 307 308 308 309 311 314 316 319 319 318 317 316 313 309 304 301 299 297 296 298 298 296 293 290 289 286 283 280 278 276 271 266 261
91 86 80 75 69 59 46 37 36 32 23 11 357 341 327 320 316 316 319 322 326 327 326 323 324 322 321 322 322 320 318 316 315 315 316 317 318 318 319 319 319 320 322 322 321 319 317 314 311 307 303 300 297 296 296 298 298 296 292 290 288 284 281 279 278 275 269 264 259
90 86 83 80 78 76 71 66 63 58 53 45 36 28 21 13 7 1 359 357 354 351 347 343 340 338 335 333 330 327 325 323 323 322 323 323 324 323 323 322 321 321 321 320 319 318 317 315 311 306 301 298 296 295 296 298 296 294 291 289 285 281 278 277 275 272 268 263 259
80 78 78 78 76 75 73 69 65 63 60 58 53 49 44 37 31 24 18 12 5 358 351 345 341 337 334 331 328 326 324 323 323 324 324 324 324 324 323 321 320 319 318 317 316 316 316 314 310 305 301 299 296 296 296 295 293 290 287 285 282 279 276 273 272 270 266 262 257
72 71 69 68 65 64 62 57 54 53 51 48 44 39 33 27 22 18 14 7 1 356 350 345 341 338 335 332 330 327 325 323 322 322 323 323 323 323 322 321 320 318 317 316 314 314 314 312 309 305 303 300 298 296 295 293 290 286 283 281 279 277 274 270 269 267 263 259 255
72 69 68 66 65 64 62 59 56 54 51 48 43 36 29 23 18 13 8 4 0 355 349 343 340 337 334 332 330 328 326 325 325 324 323 323 323 323 322 321 320 319 318 316 315 314 313 312 310 307 304 302 300 298 296 294 289 284 280 278 277 275 272 269 266 263 259 255 252
69 68 68 68 68 67 66 65 62 59 55 50 44 38 31 26 20 14 9 6 359 351 343 338 335 332 329 329 328 328 328 328 328 328 327 326 325 323 322 321 320 319 318 317 316 314 313 311 309 307 305 302 301 300 299 296 291 286 281 277 275 272 270 267 264 261 257 253 249
64 64 64 64 64 64 64 63 60 56 52 47 43 38 33 29 25 20 14 7 359 352 348 343 339 336 334 332 331 331 330 330 329 329 328 327 326 324 322 321 319 318 316 316 315 314 312 309 306 305 304 303 302 301 301 299 295 290 285 280 275 271 267 265 262 259 255 251 248
60 59 59 58 58 58 57 56 53 49 45 41 37 34 32 29 26 23 18 12 8 6 3 357 353 349 345 343 340 336 333 330 328 327 325 324 322 321 319 318 316 315 314 313 313 312 309 306 304 303 302 302 301 300 300 299 297 294 290 286 279 273 268 264 261 258 254 251 248
59 58 55 53 51 50 49 47 43 39 35 31 29 26 25 23 20 17 14 12 11 9 7 4 1 358 355 351 348 343 339 334 330 326 323 320 317 316 314 313 312 312 311 311 311 310 308 305 302 301 300 300 299 298 298 298 297 295 292 289 284 278 271 267 263 259 255 252 248
57 54 50 46 44 42 41 38 35 30 26 23 20 18 16 14 12 9 7 5 4 2 0 359 358 357 355 352 350 347 343 339 335 330 325 321 317 314 311 310 309 308 308 308 308 307 306 304 301 300 299 298 297 297 297 297 295 293 290 288 285 280 275 271 267 263 259 254 250
50 46 42 38 35 34 32 30 27 23 19 16 13 11 8 6 5 3 1 359 357 355 353 351 350 350 350 348 346 344 342 340 337 333 329 325 322 318 314 311 308 306 305 304 304 304 304 302 301 299 297 296 295 294 294 294 292 289 287 284 281 278 276 273 271 267 263 258 254
42 38 34 31 29 28 26 24 21 17 13 10 7 4 1 360 359 357 355 353 351 349 347 346 344 344 343 343 342 340 338 336 334 332 329 327 325 322 319 315 311 307 305 303 301 301 300 300 299 297 296 294 292 291 290 289 287 285 283 281 279 277 276 274 272 269 265 262 259
35 32 28 27 26 25 23 20 16 12 8 5 2 359 357 355 353 352 351 349 346 344 343 342 340 339 338 337 337 336 334 332 330 329 326 325 323 322 320 318 315 312 308 305 301 299 297 296 296 296 294 293 291 289 287 286 284 282 280 279 278 277 276 275 273 270 268 266 263
31 28 25 24 23 22 20 16 12 8 4 0 357 355 353 350 349 348 347 346 344 341 339 338 337 335 334 333 333 332 331 329 327 325 323 322 321 320 319 318 317 315 312 308 304 301 298 295 295 294 294 293 291 289 287 286 284 281 279 278 276 275 274 274 273 271 270 268 266
27 25 23 22 20 18 15 11 7 3 360 356 353 351 349 347 345 344 343 343 342 340 337 335 333 332 331 330 329 328 327 325 323 321 320 319 319 318 318 318 317 316 315 312 308 304 301 298 296 295 294 293 292 290 288 286 283 281 279 278 276 275 273 273 272 272 271 270 268
23 21 20 18 17 14 10 6 3 359 355 352 349 347 345 344 342 341 340 339 339 338 336 333 331 329 328 327 326 325 324 322 320 318 317 317 317 317 317 317 318 318 317 314 311 308 304 302 299 297 296 295 294 292 289 286 284 281 279 277 276 275 274 273 273 272 271 271 270
21 19 17 15 12 9 6 2 359 355 351 348 345 344 342 341 340 339 339 338 337 335 334 331 329 328 326 325 324 323 322 321 319 317 316 316 316 316 317 317 318 318 317 316 314 312 309 306 303 301 299 297 296 293 291 288 285 283 280 278 276 275 274 274 274 273 271 271 271
19 16 14 11 8 5 2 358 354 351 348 345 344 343 341 340 339 339 338 336 334 333 332 330 328 327 326 325 324 323 322 322 320 318 317 316 316 315 316 316 316 316 317 316 316 315 314 312 309 307 304 301 299 295 292 290 288 286 283 280 278 276 275 274 274 273 272 270 270
16 13 10 7 3 360 357 353 350 347 346 344 343 342 340 339 339 337 336 334 333 332 331 330 329 327 326 326 325 325 324 324 323 321 320 318 317 316 315 315 315 315 315 316 317 317 317 316 314 312 310 307 304 300 296 293 290 288 286 283 280 278 276 274 273 272 271 270 269
12 9 6 2 358 355 351 349 347 345 345 344 343 341 340 339 338 337 336 335 334 334 333 331 330 330 329 329 328 328 327 326 326 325 323 322 320 319 318 317 316 314 314 314 315 317 318 318 317 315 313 311 308 305 301 297 293 289 287 284 282 280 277 274 272 270 269 268 268
9 6 2 358 354 351 349 347 346 346 346 345 344 343 342 341 340 339 339 338 338 338 337 336 335 334 334 333 332 331 330 328 327 327 326 325 324 322 321 319 318 316 314 313 314 315 315 315 315 314 313 311 309 306 302 299 295 291 287 284 281 279 278 275 272 269 267 266 266
6 2 359 355 352 350 349 349 349 349 348 347 346 345 344 344 343 343 343 343 343 343 342 341 340 339 338 336 334 333 331 330 329 328 327 326 325 324 322 321 319 317 315 314 313 313 313 312 311 311 311 309 308 305 302 300 297 294 290 285 281 278 277 276 273 271 268 265 263
3 360 357 354 352 351 352 352 352 351 350 349 348 348 347 347 347 346 346 346 346 345 344 343 342 341 339 337 335 333 332 331 329 328 327 325 324 323 322 321 319 317 315 314 314 313 312 311 310 309 308 307 306 305 303 300 298 296 294 290 285 280 277 275 273 272 269 266 263
1 358 355 353 353 354 354 355 354 354 353 353 352 351 351 350 350 350 349 348 347 346 345 344 343 341 339 337 335 333 332 331 329 327 325 324 322 321 320 319 317 316 315 314 313 313 311 310 308 307 306 306 305 304 303 301 298 295 293 291 288 283 279 275 274 272 271 268 265
359 356 354 354 355 357 358 358 358 357 356 355 355 354 353 353 353 352 351 349 347 346 344 342 341 339 337 335 334 332 331 330 328 326 324 322 321 319 318 317 315 314 313 313 312 311 310 309 307 306 305 304 304 303 302 300 297 295 292 290 287 284 281 278 275 272 270 267 264
358 356 356 357 358 359 360 0 359 358 357 356 355 354 354 353 352 351 349 347 345 343 340 338 336 335 333 331 330 329 328 327 326 324 323 321 320 318 317 315 314 313 312 311 311 310 308 307 306 305 304 303 302 301 300 298 296 294 292 289 287 284 282 279 276 272 268 264 261
359 358 358 358 358 359 359 358 356 355 353 353 352 351 350 349 348 346 345 342 340 338 336 333 332 330 328 328 327 326 326 325 324 323 322 320 318 317 316 314 313 312 311 310 309 307 306 305 304 303 302 302 300 299 298 296 295 293 292 290 288 285 283 280 278 274 270 265 260
359 358 357 356 356 356 355 353 351 349 348 347 346 345 344 343 342 341 340 338 335 334 333 332 330 328 327 327 326 325 324 323 323 322 320 319 317 316 315 314 312 311 310 309 307 306 305 304 303 302 301 300 299 298 296 295 293 292 290 288 287 285 283 281 279 276 273 269 265
356 356 354 352 351 350 348 347 345 343 342 341 341 340 340 339 338 337 337 336 334 333 332 331 330 328 328 327 326 325 324 323 322 321 320 319 317 316 314 313 311 310 309 308 307 306 304 303 302 301 300 300 299 297 295 293 292 290 288 287 285 284 283 281 279 276 274 271 268
353 352 350 347 345 343 342 341 340 339 338 338 338 338 337 337 337 336 336 336 335 333 332 331 330 329 328 327 326 325 324 323 322 321 320 319 318 316 314 312 311 310 309 309 307 306 305 304 303 301 300 299 298 296 294 292 290 289 287 286 284 283 282 281 279 277 274 272 269
350 348 346 343 341 339 338 338 338 337 337 337 337 337 337 336 336 336 336 336 334 333 331 330 329 328 327 326 325 324 323 322 322 321 320 319 318 316 314 312 310 309 309 309 308 307 305 304 303 302 301 300 298 296 294 291 289 287 285 284 283 283 282 280 279 277 275 273 270
347 345 343 341 339 338 338 338 338 337 337 337 337 337 337 337 336 336 335 335 333 332 330 329 329 327 326 325 325 323 322 321 320 320 319 318 317 316 314 312 310 310 309 309 308 307 306 305 304 303 302 301 299 296 294 291 289 286 284 283 282 282 281 280 279 277 275 273 271
347 344 342 340 339 339 339 339 339 338 338 338 338 337 337 336 335 335 335 334 333 331 330 329 328 327 326 325 324 322 321 320 319 318 317 317 316 315 313 311 310 310 309 309 309 308 306 305 304 304 303 301 299 297 294 292 289 286 285 283 282 281 281 281 279 278 276 273 270
347 345 343 341 340 341 341 340 340 340 339 339 338 337 336 335 334 334 335 334 333 331 329 328 327 326 324 323 322 320 319 318 317 316 315 315 314 313 312 310 309 309 309 309 308 307 306 305 304 304 303 301 299 297 295 292 289 287 286 284 282 281 281 281 280 279 277 274 271
347 346 344 343 342 342 342 341 341 340 339 338 336 335 334 334 333 333 333 333 331 329 327 325 324 323 322 321 320 318 317 316 315 314 313 312 312 311 310 309 308 307 307 308 307 306 305 304 303 303 302 300 298 296 294 292 290 288 286 285 283 282 282 281 280 278 277 275 274
346 345 345 343 343 342 341 341 340 339 337 335 334 333 333 332 331 331 330 329 328 326 324 322 321 320 319 319 318 316 315 314 313 312 311 310 310 309 308 307 306 305 305 306 305 304 303 303 302 302 301 299 297 295 292 290 289 287 286 284 284 283 282 281 279 278 277 276 275
344 343 343 342 341 340 339 337 336 335 333 332 331 331 330 330 328 327 326 326 324 323 321 319 318 317 317 317 316 314 313 312 312 311 310 309 308 308 307 305 304 303 303 303 303 303 302 301 301 301 300 298 296 293 291 289 287 286 285 284 283 283 282 281 279 278 277 277 276
341 341 340 340 339 337 336 334 332 331 330 330 329 328 327 326 325 324 323 322 321 320 319 317 316 315 314 314 313 311 310 309 309 309 308 308 307 306 305 304 303 302 302 301 301 301 301 300 300 300 299 297 295 292 290 287 286 284 283 283 282 282 282 282 281 279 277 277 276
Height
777 778 778 779 779 780 780 780 780 780 781 782 782 783 784 784 784 784 784 784 784 784 784 784 784 784 784 784 785 785 786 786 787 787 787 788 788 788 788 787 787 787 786 786 785 784 783 783 782 782 782 782 782 782 781 781 781 780 779 778 777 776 776 775 774 774 773 773 773
776 777 777 778 778 779 779 779 780 780 781 781 782 783 783 783 783 784 784 784 784 784 784 784 784 784 784 784 785 785 786 786 786 787 787 787 787 787 787 787 786 786 785 784 784 783 782 781 781 781 781 781 781 780 780 779 779 778 777 776 776 775 775 774 773 773 773 773 773
776 776 777 777 778 778 779 779 780 780 781 781 782 783 783 783 783 783 783 784 784 784 784 784 784 784 784 785 785 785 785 786 786 786 786 786 786 786 786 785 784 784 783 782 781 781 781 780 780 780 780 780 779 779 778 777 777 777 776 775 775 774 774 773 773 773 773 773 773
775 776 776 777 777 778 779 779 780 781 781 782 782 783 783 783 783 783 783 783 784 784 784 784 784 784 784 784 784 785 785 785 785 785 785 784 784 783 783 782 782 781 781 780 780 780 780 780 780 780 779 778 778 777 777 776 776 776 775 774 774 773 773 772 772 772 772 772 772
775 776 776 776 777 778 779 780 780 781 781 782 782 783 783 783 783 783 783 783 783 784 784 784 784 783 783 783 783 783 783 783 783 783 782 782 781 781 781 780 780 780 779 779 779 779 779 779 779 779 778 777 776 776 776 775 775 774 774 773 773 772 772 771 771 771 771 771 771
775 776 776 777 778 778 779 780 781 781 782 782 782 782 782 782 782 782 782 782 782 782 782 782 782 782 782 781 781 781 781 781 781 781 781 780 780 780 779 779 779 779 779 779 779 779 778 778 778 777 777 776 776 775 774 774 774 773 773 772 772 771 771 771 771 771 771 770 770
776 776 777 777 778 779 780 781 781 781 782 782 782 782 782 781 781 781 781 781 781 781 781 781 781 781 781 780 780 780 780 780 780 780 779 779 779 778 778 778 778 778 778 778 778 777 777 777 777 776 776 776 775 774 773 773 772 772 771 771 771 771 770 770 770 770 770 769 769
777 777 778 779 779 780 781 781 782 782 782 782 782 782 781 781 781 781 780 780 780 780 781 781 781 781 781 781 780 780 780 780 779 779 778 778 777 777 777 777 777 777 777 777 777 776 776 776 776 775 775 774 774 773 773 772 771 771 770 770 769 769 769 769 769 769 769 768 768
778 779 779 780 780 781 781 782 782 782 783 783 782 782 781 781 781 781 781 781 781 781 781 781 781 781 781 781 780 780 780 779 778 778 777 777 776 776 776 776 776 776 776 776 776 776 776 775 775 774 774 773 773 772 772 771 771 770 769 769 768 768 768 768 768 768 767 767 767
779 780 780 781 781 782 782 782 783 783 783 783 783 782 782 781 781 781 781 781 781 781 781 781 781 781 781 780 780 780 779 778 778 777 777 776 776 776 776 776 776 776 775 775 775 775 775 774 774 773 773 772 772 771 771 771 770 770 769 768 767 767 767 766 766 766 766 766 766
780 781 781 782 782 783 783 783 783 783 784 783 783 783 782 782 782 782 782 781 781 781 781 781 781 781 780 780 780 779 779 778 778 777 777 776 776 776 776 776 776 776 775 775 775 775 774 774 773 772 772 771 771 771 770 770 769 769 768 768 767 766 766 766 766 766 766 765 765
781 782 782 782 783 783 783 783 783 784 784 783 783 783 782 782 782 782 781 781 781 781 781 781 781 781 780 780 780 779 779 778 778 777 777 777 776 776 776 776 776 776 776 775 775 775 774 773 772 772 771 771 770 770 769 768 768 767 767 767 766 766 766 765 765 765 765 765 764
782 782 782 783 783 783 783 783 783 783 783 783 782 782 782 782 782 781 781 781 781 781 781 781 781 780 780 780 779 779 779 778 778 777 777 777 777 776 776 776 776 776 775 775 775 774 774 773 772 771 770 770 769 768 768 767 767 766 766 766 765 765 765 765 765 764 764 764 764
782 782 782 782 782 782 782 782 782 782 782 782 782 782 782 782 781 781 781 781 780 780 780 780 780 780 780 779 779 778 778 777 777 777 776 776 776 776 776 775 775 775 775 774 774 774 773 772 771 770 769 768 768 767 767 766 766 765 765 764 764 764 764 764 764 764 763 763 763
781 781 782 782 782 782 782 782 782 782 782 782 782 781 781 781 781 781 781 780 780 780 779 779 779 779 778 778 778 777 777 777 776 776 776 776 776 775 775 775 775 774 774 774 773 773 772 771 771 770 769 768 767 766 766 765 765 764 764 763 763 763 763 762 762 762 762 762 761
781 781 781 781 781 781 781 782 782 782 782 781 781 781 781 781 781 780 780 780 779 779 778 778 778 777 777 777 777 777 776 776 776 775 775 775 775 775 774 774 774 774 773 773 772 771 771 771 770 769 768 767 766 765 764 764 763 763 762 762 762 762 761 761 761 761 761 760 760
781 781 781 781 781 781 781 782 782 782 781 781 781 781 781 781 780 780 780 779 779 778 778 777 777 777 776 776 776 776 776 776 775 775 775 775 774 774 774 773 773 773 772 772 771 770 770 769 768 767 767 766 765 764 763 762 762 761 761 761 761 760 760 760 760 759 759 759 758
781 781 781 781 781 781 782 782 782 781 781 781 781 781 781 780 780 779 779 779 778 778 777 777 777 776 776 776 776 776 776 776 775 775 775 774 774 774 773 773 772 772 771 771 770 769 768 767 766 766 765 764 763 762 761 761 760 760 759 759 759 759 758 758 758 758 757 757 757
782 782 782 782 782 782 782 782 782 781 781 781 781 781 780 780 780 779 779 778 778 778 778 777 777 776 776 776 776 776 776 776 775 775 774 774 774 773 773 772 771 771 770 769 768 767 766 766 765 764 763 762 761 761 760 760 759 758 757 757 757 757 756 756 756 756 756 755 755
783 783 783 783 783 783 783 782 782 782 782 781 781 781 780 780 780 779 779 779 779 778 778 778 777 777 777 776 776 776 776 776 775 775 774 774 773 772 772 771 771 770 769 768 767 766 765 764 763 762 761 761 760 759 759 758 757 756 756 755 755 755 754 754 754 754 754 753 753
784 784 784 784 784 784 783 783 783 783 782 782 782 781 781 781 781 780 780 780 779 779 779 778 778 778 777 777 776 776 776 775 775 774 774 773 772 772 771 770 769 768 767 766 766 764 763 762 761 761 760 759 758 758 757 756 756 755 754 753 753 752 752 752 752 752 751 751 751
785 785 785 785 784 784 784 784 784 783 783 783 782 782 781 781 781 781 781 780 780 779 779 779 778 778 777 777 776 776 775 774 774 773 773 772 771 770 770 769 768 767 766 765 764 763 762 761 760 759 758 757 757 756 756 755 754 753 752 751 751 750 750 749 749 749 749 749 749
786 786 785 785 785 785 785 784 784 784 783 783 782 782 781 781 781 781 780 780 779 779 779 778 778 777 777 776 776 775 774 773 772 771 771 770 769 769 768 767 766 766 765 764 763 762 761 760 759 758 757 756 755 755 754 753 752 751 751 750 749 748 748 747 747 746 746 746 746
786 786 786 786 785 785 785 784 784 783 783 782 782 781 781 781 780 780 779 779 778 778 777 777 776 776 775 775 774 773 772 771 770 769 768 768 767 766 766 765 765 764 763 762 761 761 760 759 758 757 756 755 754 753 752 751 751 750 749 748 747 746 746 745 745 744 744 744 744
786 786 786 786 785 785 784 784 783 783 782 781 781 781 780 780 779 778 778 777 777 776 776 775 775 774 773 772 772 771 771 770 768 767 766 765 765 764 764 763 762 762 761 760 760 759 758 758 757 756 755 754 753 752 751 750 749 748 747 746 745 744 744 743 743 742 742 741 741
786 786 786 785 785 784 783 783 782 782 781 781 780 780 779 778 778 777 777 776 776 775 774 774 773 772 771 771 770 769 768 768 767 766 765 764 763 762 762 761 761 760 759 759 758 757 757 756 756 755 754 753 751 750 749 748 747 746 746 745 743 742 741 741 741 740 740 739 739
786 785 785 784 784 783 782 782 781 781 780 780 779 779 778 777 777 776 776 775 774 773 773 772 771 771 770 769 768 767 766 766 765 764 764 763 762 761 760 760 759 758 758 757 756 756 755 754 754 753 752 751 750 749 748 746 746 745 744 743 742 741 740 739 738 738 738 737 737
785 784 784 783 782 782 781 781 781 780 779 779 778 778 777 777 776 776 775 774 773 772 771 771 770 770 769 768 767 766 766 765 764 763 762 762 761 760 759 758 757 757 756 756 755 754 753 753 752 751 751 750 749 747 746 745 744 743 742 741 740 739 738 737 736 736 736 735 735
784 783 783 782 782 781 781 781 780 780 779 779 778 777 777 776 776 775 774 773 772 772 771 770 769 769 768 767 766 766 765 764 763 762 761 761 760 759 758 757 756 755 755 754 753 753 752 751 750 750 749 748 747 746 745 744 742 741 740 739 738 737 736 735 735 734 733 732 732
784 783 782 782 781 781 781 780 780 779 779 778 778 777 776 776 775 774 773 773 772 771 771 770 769 768 767 766 765 764 763 763 762 761 760 759 758 757 756 756 755 754 753 752 752 751 750 749 749 748 747 746 746 744 743 742 741 739 738 737 736 735 734 733 732 731 731 730 729
784 783 782 782 781 781 781 780 780 779 779 778 777 776 776 775 774 774 773 772 771 770 770 769 768 767 766 765 764 763 762 761 760 760 759 758 756 756 755 754 753 752 751 751 750 749 748 748 747 746 745 745 744 742 741 740 739 737 736 735 734 733 732 731 730 729 729 728 727
784 783 782 782 781 781 781 780 779 779 778 777 777 776 775 774 774 773 772 771 770 769 768 767 766 765 764 763 762 761 761 760 759 758 757 756 755 754 752 751 751 750 749 749 748 747 746 746 745 744 743 742 741 740 739 738 736 735 734 733 731 731 730 729 728 727 726 726 726
784 783 782 782 781 781 780 780 779 778 777 777 776 775 774 773 772 771 771 770 769 768 767 766 765 764 763 762 761 760 759 758 757 756 756 755 753 752 751 750 749 748 747 747 746 746 745 744 743 742 741 740 739 738 736 735 734 733 731 730 729 728 727 727 726 725 724 723 723
784 783 782 782 781 780 780 779 778 777 776 776 775 774 774 773 771 771 769 769 768 767 766 765 764 763 762 761 760 759 757 756 756 755 754 753 751 750 749 748 746 746 746 745 744 743 742 742 741 740 739 738 737 736 734 733 731 730 729 727 726 726 725 724 723 722 721 721 720
783 782 782 781 781 780 779 778 777 776 776 775 774 773 772 771 771 770 769 767 766 766 765 764 763 762 761 760 759 758 757 755 754 753 752 751 750 749 747 746 744 744 743 743 742 741 741 740 739 738 737 736 735 733 731 730 729 727 726 725 723 722 722 721 721 720 719 718 718
783 782 781 780 780 779 778 777 776 775 775 774 773 772 771 770 769 769 768 766 765 764 763 762 761 760 759 758 757 756 756 755 753 751 751 750 749 747 745 743 742 741 741 741 740 739 738 737 737 736 735 734 732 731 729 728 726 725 723 722 721 720 719 718 718 717 716 716 715
782 781 780 779 778 778 777 776 775 774 773 772 771 771 770 769 768 767 766 766 764 763 762 761 760 759 758 757 756 755 754 754 752 751 749 748 747 746 744 742 740 739 739 738 738 737 736 736 735 734 733 732 731 729 727 726 724 722 721 719 718 717 716 716 715 714 713 712 712
781 781 780 779 778 777 776 775 774 773 772 771 771 770 769 768 767 766 766 765 764 763 761 760 759 758 757 756 755 754 752 752 751 750 749 747 746 745 744 741 739 737 737 736 736 736 735 734 733 733 732 731 729 727 726 724 722 720 718 717 715 714 713 713 712 711 710 709 709
781 780 779 778 777 776 775 775 774 773 772 771 770 769 769 768 767 766 766 765 764 763 762 760 759 758 756 756 754 752 751 750 750 749 748 746 745 744 743 741 738 736 736 735 734 734 733 732 731 731 730 729 728 726 724 722 720 718 716 715 713 711 710 710 709 708 706 706 706
780 779 779 778 777 776 775 774 773 773 772 771 770 769 768 768 767 766 765 765 764 763 762 760 759 757 756 755 754 752 750 748 748 747 746 745 744 743 741 740 738 736 734 733 733 732 731 731 730 729 728 727 726 724 723 721 718 716 714 712 711 709 707 706 706 705 704 703 702
780 779 778 777 777 776 775 774 773 773 772 771 771 770 769 768 767 766 765 764 763 762 761 760 758 757 756 755 754 752 750 748 746 746 745 744 743 741 740 739 737 735 733 732 731 730 729 729 728 727 726 726 724 723 721 719 717 714 712 710 709 707 706 704 703 702 701 700 699